W3EJE-13 Weather Reports


Display with metric or nautical units.
time (UTC)temp
F
wind
direction
speed
MPH
gust
MPH
rain 1hr
in
rain 24hr
in
rain mn
in
humidity
%
barometer
mb
20260903053329 70 220 0.0 0.0 0.00 0.00 0.00 99 1020.3
20260903052825 70 220 0.0 0.0 0.00 0.00 0.00 99 1020.5
20260903052320 70 220 0.0 0.0 0.00 0.00 0.00 99 1020.2
20260903051816 70 220 0.0 0.0 0.00 0.00 0.00 99 1020.3
20260903051311 70 220 0.0 0.0 0.00 0.00 0.00 99 1020.2
20260903050807 70 220 0.0 0.0 0.00 0.00 0.00 99 1020.2
20260903050306 71 220 0.0 0.0 0.00 0.00 0.00 99 1020.4
20260903045801 71 220 0.0 0.0 0.00 0.00 0.00 99 1020.0
20260903045257 71 220 0.0 0.0 0.00 0.00 0.00 99 1020.2
20260903044753 71 220 0.0 0.0 0.00 0.00 0.00 99 1020.2
20260903044248 71 220 0.0 0.0 0.00 0.00 0.00 99 1020.1
20260903043745 71 220 0.0 0.0 0.00 0.00 0.00 99 1020.2
20260903043244 71 220 0.0 0.0 0.00 0.00 0.00 99 1020.1
20260903042744 71 221 0.0 0.0 0.00 0.00 0.00 99 1020.3
20260903042239 72 221 0.0 0.0 0.00 0.00 0.00 99 1020.4
20260903041735 72 220 0.0 0.0 0.00 0.00 0.00 99 1020.4
20260903041232 72 220 0.0 0.0 0.00 0.00 0.00 99 1020.5
20260903040731 72 220 0.0 0.0 0.00 0.00 0.00 99 1020.3
20260903040225 72 219 0.0 0.0 0.00 0.00 0.00 99 1020.7
20260903035721 72 221 0.0 0.0 0.00 0.00 0.00 99 1020.5
20260903035217 72 219 0.0 0.0 0.00 0.00 0.00 99 1020.7
20260903034717 72 214 0.0 0.0 0.00 0.00 0.00 99 1020.7
20260903034212 72 220 0.0 0.0 0.00 0.00 0.00 99 1020.8
20260903033708 72 220 0.0 0.0 0.00 0.00 0.00 99 1020.6
20260903033202 72 220 0.0 0.0 0.00 0.00 0.00 99 1020.8
20260903032657 72 221 0.0 0.0 0.00 0.00 0.00 99 1020.6
20260903032152 72 221 0.0 0.0 0.00 0.00 0.00 99 1020.7
20260903031648 72 221 0.0 0.0 0.00 0.00 0.00 99 1020.8
20260903031142 72 221 0.0 0.0 0.00 0.00 0.00 99 1020.6
20260903030638 72 213 0.0 0.0 0.00 0.00 0.00 99 1020.7
20260903030133 72 213 0.0 0.0 0.00 0.00 0.00 99 1020.6
20260903025628 72 213 0.0 0.0 0.00 0.00 0.00 99 1020.7
20260903025124 73 213 0.0 0.0 0.00 0.00 0.00 99 1020.6
20260903024619 73 213 0.0 0.0 0.00 0.00 0.00 99 1020.7
20260903024113 73 213 0.0 0.0 0.00 0.00 0.00 99 1020.7
20260903023609 73 213 0.0 0.0 0.00 0.00 0.00 99 1020.9
20260903023108 73 213 0.0 0.0 0.00 0.00 0.00 99 1020.8
20260903022603 73 213 0.0 0.0 0.00 0.00 0.00 99 1020.9
20260903022102 74 213 0.0 0.0 0.00 0.00 0.00 99 1021.2
20260903021557 74 213 0.0 0.0 0.00 0.00 0.00 99 1021.3
20260903021051 74 213 0.0 0.0 0.00 0.00 0.00 99 1021.0
20260903020547 74 213 0.0 0.0 0.00 0.00 0.00 98 1020.8
20260903020047 75 213 0.0 0.0 0.00 0.00 0.00 98 1020.7
20260903015543 75 213 0.0 0.0 0.00 0.00 0.00 98 1020.7
20260903015038 75 213 0.0 0.0 0.00 0.00 0.00 98 1020.7
20260903014537 75 213 0.0 0.0 0.00 0.00 0.00 98 1020.6
20260903014032 75 212 0.0 0.0 0.00 0.00 0.00 98 1021.0
20260903013531 75 212 0.0 0.0 0.00 0.00 0.00 99 1020.7
20260903013026 75 212 0.0 0.0 0.00 0.00 0.00 99 1020.7
20260903012526 75 212 0.0 0.0 0.00 0.00 0.00 98 1020.9
20260903012025 75 212 0.0 0.0 0.00 0.00 0.00 98 1020.9
20260903011519 75 212 0.0 0.0 0.00 0.00 0.00 98 1021.2
20260903011014 75 208 0.0 0.0 0.00 0.00 0.00 98 1021.0
20260903010509 75 207 0.0 0.0 0.00 0.00 0.00 98 1021.2
20260903010008 75 206 0.0 0.0 0.00 0.00 0.00 98 1021.2
20260903005503 76 199 0.0 0.0 0.00 0.00 0.00 97 1020.9
20260903004958 76 198 0.0 0.0 0.00 0.00 0.00 97 1020.9
20260903004453 76 199 0.0 0.0 0.00 0.00 0.00 97 1021.0
20260903003949 77 199 0.0 0.0 0.00 0.00 0.00 96 1021.0
20260903003448 77 199 0.0 0.0 0.00 0.00 0.00 94 1020.7
20260903002944 77 198 0.0 0.0 0.00 0.00 0.00 94 1020.8
20260903002438 78 198 0.0 0.0 0.00 0.00 0.00 94 1020.8
20260903001938 78 198 0.0 0.0 0.00 0.00 0.00 93 1020.8
20260903001438 79 198 0.0 0.0 0.00 0.00 0.00 91 1020.7
20260903000932 79 198 0.0 0.0 0.00 0.00 0.00 90 1020.6
20260903000428 80 245 0.0 0.0 0.00 0.00 0.00 89 1020.6
20260902235926 80 245 0.0 0.0 0.00 0.00 0.00 88 1020.7
20260902235421 80 245 0.0 0.0 0.00 0.00 0.00 87 1020.8
20260902234921 80 245 0.0 0.0 0.00 0.00 0.00 87 1020.8
20260902234416 81 246 0.0 0.0 0.00 0.00 0.00 88 1020.9
20260902233915 82 246 0.0 0.0 0.00 0.00 0.00 84 1021.2
20260902233409 83 246 0.0 0.0 0.00 0.00 0.00 82 1020.8
20260902232907 84 236 0.0 0.0 0.00 0.00 0.00 80 1020.5
20260902232357 85 246 0.0 0.0 0.00 0.00 0.00 79 1020.9
20260902231857 85 247 0.0 0.0 0.00 0.00 0.00 79 1020.8
20260902231352 86 233 0.0 0.0 0.00 0.00 0.00 78 1020.8
20260902230847 85 238 0.0 0.0 0.00 0.00 0.00 78 1020.8
20260902230346 85 249 0.0 0.0 0.00 0.00 0.00 80 1020.7
20260902225840 85 246 0.0 0.0 0.00 0.00 0.00 80 1020.7
20260902225336 84 246 1.0 2.0 0.00 0.00 0.00 80 1020.7
20260902224833 85 252 2.0 2.0 0.00 0.00 0.00 78 1020.8
20260902224329 85 253 2.0 2.0 0.00 0.00 0.00 78 1020.6
20260902223826 85 235 3.0 3.0 0.00 0.00 0.00 78 1020.6
20260902223325 86 283 4.0 6.0 0.00 0.00 0.00 77 1020.6
20260902222825 86 253 2.0 2.0 0.00 0.00 0.00 78 1020.8
20260902222318 86 263 1.0 2.0 0.00 0.00 0.00 77 1020.7
20260902221813 86 251 3.0 3.0 0.00 0.00 0.00 77 1020.7
20260902221312 86 263 1.0 2.0 0.00 0.00 0.00 77 1020.5
20260902220808 86 267 2.0 3.0 0.00 0.00 0.00 76 1020.7
20260902220308 87 289 3.0 3.0 0.00 0.00 0.00 75 1020.5
20260902215803 86 293 3.0 3.0 0.00 0.00 0.00 75 1020.5
20260902215258 86 263 2.0 2.0 0.00 0.00 0.00 77 1020.8
20260902214754 86 263 4.0 6.0 0.00 0.00 0.00 76 1020.5
20260902214253 86 332 5.0 7.0 0.00 0.00 0.00 76 1020.5
20260902213749 86 272 2.0 3.0 0.00 0.00 0.00 75 1020.5
20260902213249 87 271 3.0 3.0 0.00 0.00 0.00 75 1020.7
20260902212747 87 10 5.0 7.0 0.00 0.00 0.00 76 1020.8
20260902212245 87 256 1.0 2.0 0.00 0.00 0.00 74 1020.6
20260902211740 86 267 2.0 2.0 0.00 0.00 0.00 74 1020.6
20260902211236 87 257 5.0 6.0 0.00 0.00 0.00 74 1020.8
20260902210736 87 313 3.0 3.0 0.00 0.00 0.00 74 1020.5
20260902210231 86 11 5.0 6.0 0.00 0.00 0.00 77 1020.6
20260902205729 88 261 2.0 3.0 0.00 0.00 0.00 72 1020.8
20260902205224 87 262 3.0 3.0 0.00 0.00 0.00 75 1020.9
20260902204720 88 251 3.0 3.0 0.00 0.00 0.00 73 1020.9
20260902204215 88 256 3.0 5.0 0.00 0.00 0.00 73 1020.9
20260902203710 88 285 4.0 6.0 0.00 0.00 0.00 75 1020.6
20260902203210 88 259 2.0 2.0 0.00 0.00 0.00 74 1020.8
20260902202704 87 267 5.0 6.0 0.00 0.00 0.00 74 1020.7
20260902202201 87 272 5.0 6.0 0.00 0.00 0.00 75 1020.9
20260902201657 87 8 5.0 6.0 0.00 0.00 0.00 76 1021.0
20260902201156 87 30 8.0 11.0 0.00 0.00 0.00 76 1021.0
20260902200651 86 227 1.0 1.0 0.00 0.00 0.00 75 1021.2
20260902200147 86 308 3.0 3.0 0.00 0.00 0.00 76 1020.9
20260902195643 86 255 4.0 5.0 0.00 0.00 0.00 75 1021.0
20260902195142 85 332 2.0 2.0 0.00 0.00 0.00 76 1020.9
20260902194641 85 277 5.0 6.0 0.00 0.00 0.00 77 1021.3
20260902194136 86 306 6.0 8.0 0.00 0.00 0.00 76 1021.0
20260902193632 87 37 7.0 8.0 0.00 0.00 0.00 74 1021.3
20260902193127 87 316 3.0 5.0 0.00 0.00 0.00 74 1021.0
20260902192625 86 161 6.0 7.0 0.00 0.00 0.00 74 1021.5
20260902192124 86 281 4.0 5.0 0.00 0.00 0.00 74 1021.2
20260902191619 86 301 6.0 8.0 0.00 0.00 0.00 74 1021.4
20260902191114 86 315 7.0 13.0 0.00 0.00 0.00 74 1021.4
20260902190609 87 289 6.0 7.0 0.00 0.00 0.00 73 1021.6
20260902190105 87 265 2.0 2.0 0.00 0.00 0.00 72 1021.5
20260902185600 87 256 6.0 7.0 0.00 0.00 0.00 75 1021.5
20260902185056 87 19 5.0 7.0 0.00 0.00 0.00 73 1021.5
20260902184551 87 223 3.0 3.0 0.00 0.00 0.00 73 1021.4
20260902184046 87 261 5.0 6.0 0.00 0.00 0.00 74 1021.5
20260902183543 87 319 4.0 5.0 0.00 0.00 0.00 72 1021.5
20260902183039 87 287 6.0 7.0 0.00 0.00 0.00 76 1021.3
20260902182535 86 244 3.0 5.0 0.00 0.00 0.00 76 1021.6
20260902182031 86 320 6.0 7.0 0.00 0.00 0.00 77 1021.5
20260902181527 86 314 5.0 7.0 0.00 0.00 0.00 75 1021.6
20260902181021 87 28 6.0 7.0 0.00 0.00 0.00 75 1021.7
20260902180520 86 247 5.0 6.0 0.00 0.00 0.00 78 1021.8
20260902180017 86 252 5.0 7.0 0.00 0.00 0.00 74 1021.7
20260902175516 86 309 6.0 9.0 0.00 0.00 0.00 77 1021.8
20260902175013 87 355 7.0 8.0 0.00 0.00 0.00 75 1021.8
20260902174509 87 346 4.0 8.0 0.00 0.00 0.00 75 1022.0
20260902174004 87 314 8.0 9.0 0.00 0.00 0.00 75 1022.0
20260902173503 86 291 6.0 7.0 0.00 0.00 0.00 76 1022.3
20260902172959 86 310 6.0 8.0 0.00 0.00 0.00 77 1022.3
20260902172458 86 0 8.0 9.0 0.00 0.00 0.00 77 1022.1
20260902171953 86 324 9.0 10.0 0.00 0.00 0.00 76 1022.3
20260902171449 86 275 3.0 5.0 0.00 0.00 0.00 77 1022.5
20260902170944 85 326 4.0 7.0 0.00 0.00 0.00 78 1022.3
20260902170439 86 279 7.0 8.0 0.00 0.00 0.00 80 1022.3
20260902165935 86 301 7.0 8.0 0.00 0.00 0.00 80 1022.7
20260902165434 84 284 3.0 5.0 0.00 0.00 0.00 80 1022.5
20260902164935 85 259 3.0 5.0 0.00 0.00 0.00 78 1022.6
20260902164430 84 331 11.0 11.0 0.00 0.00 0.00 78 1022.6
20260902163929 84 61 9.0 10.0 0.00 0.00 0.00 79 1023.0
20260902163424 85 8 9.0 11.0 0.00 0.00 0.00 79 1022.6
20260902162922 85 239 4.0 5.0 0.00 0.00 0.00 79 1022.8
20260902162417 84 348 9.0 11.0 0.00 0.00 0.00 81 1022.7
20260902161917 84 310 6.0 9.0 0.00 0.00 0.00 80 1022.8
20260902161413 84 293 9.0 10.0 0.00 0.00 0.00 80 1022.6
20260902160908 84 1 9.0 10.0 0.00 0.00 0.00 79 1023.0
20260902160404 84 250 5.0 6.0 0.00 0.00 0.00 81 1022.7
20260902155901 84 301 5.0 7.0 0.00 0.00 0.00 80 1022.7
20260902155356 83 315 7.0 8.0 0.00 0.00 0.00 81 1022.8
20260902154851 83 269 6.0 7.0 0.00 0.00 0.00 81 1023.3
20260902154346 83 296 3.0 3.0 0.00 0.00 0.00 80 1023.0
20260902153845 83 340 10.0 11.0 0.00 0.00 0.00 80 1023.0
20260902153344 83 302 7.0 7.0 0.00 0.00 0.00 82 1023.0
20260902152840 83 275 5.0 6.0 0.00 0.00 0.00 81 1023.0
20260902152336 83 309 2.0 3.0 0.00 0.00 0.00 80 1023.0
20260902151832 84 340 4.0 6.0 0.00 0.00 0.00 80 1022.8
20260902151327 83 289 5.0 5.0 0.00 0.00 0.00 82 1022.8
20260902150821 83 345 8.0 9.0 0.00 0.00 0.00 80 1023.1
20260902150318 83 269 5.0 7.0 0.00 0.00 0.00 82 1022.8
20260902145817 83 290 3.0 3.0 0.00 0.00 0.00 80 1022.8
20260902145312 83 321 5.0 6.0 0.00 0.00 0.00 83 1022.7
20260902144808 82 204 6.0 7.0 0.00 0.00 0.00 80 1022.7
20260902144303 82 265 4.0 5.0 0.00 0.00 0.00 80 1022.6
20260902143758 82 3 4.0 5.0 0.00 0.00 0.00 81 1022.4
20260902143253 82 21 7.0 8.0 0.00 0.00 0.00 82 1022.6
20260902142749 81 290 6.0 7.0 0.00 0.00 0.00 83 1022.5
20260902142245 81 302 0.0 0.0 0.00 0.00 0.00 84 1022.3
20260902141744 81 253 0.0 0.0 0.00 0.00 0.00 84 1022.3
20260902141240 80 277 0.0 0.0 0.00 0.00 0.00 86 1022.4
20260902140735 80 261 0.0 0.0 0.00 0.00 0.00 86 1022.4
20260902140230 80 254 0.0 0.0 0.00 0.00 0.00 85 1022.3
20260902135729 80 250 0.0 0.0 0.00 0.00 0.00 87 1022.4
20260902135225 79 248 0.0 0.0 0.00 0.00 0.00 87 1022.5
20260902134724 79 252 0.0 0.0 0.00 0.00 0.00 88 1022.5
20260902134220 79 244 0.0 0.0 0.00 0.00 0.00 88 1022.4
20260902133715 78 253 0.0 0.0 0.00 0.00 0.00 89 1022.3
20260902133214 77 254 0.0 0.0 0.00 0.00 0.00 93 1022.4
20260902132709 75 244 0.0 0.0 0.00 0.00 0.00 98 1022.3
20260902132205 74 245 0.0 0.0 0.00 0.00 0.00 99 1022.2
20260902131700 73 245 0.0 0.0 0.00 0.00 0.00 99 1022.4
20260902131156 72 244 0.0 0.0 0.00 0.00 0.00 99 1022.4
20260902130652 72 244 0.0 0.0 0.00 0.00 0.00 99 1022.7
20260902130147 71 243 0.0 0.0 0.00 0.00 0.00 99 1022.7
20260902125637 71 244 0.0 0.0 0.00 0.00 0.00 99 1022.5
20260902125132 71 244 0.0 0.0 0.00 0.00 0.00 99 1022.7
20260902124629 70 243 0.0 0.0 0.00 0.00 0.00 99 1022.6
20260902124128 70 243 0.0 0.0 0.00 0.00 0.00 99 1022.7
20260902123625 70 244 0.0 0.0 0.00 0.00 0.00 99 1022.5
20260902123124 70 244 0.0 0.0 0.00 0.00 0.00 99 1022.4
20260902122619 69 244 0.0 0.0 0.00 0.00 0.00 99 1022.4
20260902122114 69 244 0.0 0.0 0.00 0.00 0.00 99 1022.4
20260902121609 69 244 0.0 0.0 0.00 0.00 0.00 99 1022.1
20260902121103 69 244 0.0 0.0 0.00 0.00 0.00 99 1022.3
20260902120600 69 244 0.0 0.0 0.00 0.00 0.00 99 1022.1
20260902120056 68 244 0.0 0.0 0.00 0.00 0.00 99 1022.3
20260902115551 68 243 0.0 0.0 0.00 0.00 0.00 99 1022.1
20260902115047 67 244 0.0 0.0 0.00 0.00 0.00 99 1022.4
20260902114543 67 244 0.0 0.0 0.00 0.00 0.00 99 1022.2
20260902114042 66 244 0.0 0.0 0.00 0.00 0.00 99 1022.2
20260902113538 66 244 0.0 0.0 0.00 0.00 0.00 99 1022.3
20260902113033 66 245 0.0 0.0 0.00 0.00 0.00 99 1022.0
20260902112528 66 245 0.0 0.0 0.00 0.00 0.00 99 1021.9
20260902112025 65 245 0.0 0.0 0.00 0.00 0.00 99 1022.0
20260902111521 65 245 0.0 0.0 0.00 0.00 0.00 99 1021.8
20260902111016 65 245 0.0 0.0 0.00 0.00 0.00 99 1021.9
20260902110513 65 245 0.0 0.0 0.00 0.00 0.00 99 1021.9
20260902110008 65 245 0.0 0.0 0.00 0.00 0.00 99 1021.8
20260902105502 65 245 0.0 0.0 0.00 0.00 0.00 99 1022.0
20260902104957 65 245 0.0 0.0 0.00 0.00 0.00 99 1022.0
20260902104452 65 245 0.0 0.0 0.00 0.00 0.00 99 1022.0
20260902103952 65 245 0.0 0.0 0.00 0.00 0.00 99 1021.9
20260902103448 65 245 0.0 0.0 0.00 0.00 0.00 99 1021.9
20260902102943 65 245 0.0 0.0 0.00 0.00 0.00 99 1022.0
20260902102439 65 245 0.0 0.0 0.00 0.00 0.00 99 1022.2
20260902101936 66 245 0.0 0.0 0.00 0.00 0.00 99 1022.2
20260902101430 66 245 0.0 0.0 0.00 0.00 0.00 99 1022.1
20260902100930 65 245 0.0 0.0 0.00 0.00 0.00 99 1022.2
20260902100430 65 245 0.0 0.0 0.00 0.00 0.00 99 1022.0
20260902095924 66 246 0.0 0.0 0.00 0.00 0.00 99 1022.4
20260902095419 66 245 0.0 0.0 0.00 0.00 0.00 99 1022.2
20260902094918 66 246 0.0 0.0 0.00 0.00 0.00 99 1022.3
20260902094414 66 246 0.0 0.0 0.00 0.00 0.00 99 1022.3
20260902093909 66 246 0.0 0.0 0.00 0.00 0.00 99 1022.3
20260902093404 66 246 0.0 0.0 0.00 0.00 0.00 99 1022.2
20260902092902 66 246 0.0 0.0 0.00 0.00 0.00 99 1022.1
20260902092358 66 247 0.0 0.0 0.00 0.00 0.00 99 1022.1
20260902091853 66 246 0.0 0.0 0.00 0.00 0.00 99 1022.3
20260902091348 66 246 0.0 0.0 0.00 0.00 0.00 99 1022.2
20260902090845 66 246 0.0 0.0 0.00 0.00 0.00 99 1022.3
20260902090344 66 246 0.0 0.0 0.00 0.00 0.00 99 1022.2
20260902085843 67 246 0.0 0.0 0.00 0.00 0.00 99 1022.3
20260902085339 67 246 0.0 0.0 0.00 0.00 0.00 99 1022.1
20260902084834 67 246 0.0 0.0 0.00 0.00 0.00 99 1022.3
20260902084331 67 246 0.0 0.0 0.00 0.00 0.00 99 1022.1
20260902083826 67 247 0.0 0.0 0.00 0.00 0.00 99 1022.3
20260902083325 67 247 0.0 0.0 0.00 0.00 0.00 99 1022.0
20260902082821 67 247 0.0 0.0 0.00 0.00 0.00 99 1022.2
20260902082317 67 247 0.0 0.0 0.00 0.00 0.00 99 1022.0
20260902081813 67 247 0.0 0.0 0.00 0.00 0.00 99 1022.1
20260902081309 67 247 0.0 0.0 0.00 0.00 0.00 99 1022.0
20260902080803 67 247 0.0 0.0 0.00 0.00 0.00 99 1022.3
20260902080301 67 245 0.0 0.0 0.00 0.00 0.00 99 1022.1
20260902075759 67 246 0.0 0.0 0.00 0.00 0.00 99 1022.0
20260902075256 67 246 0.0 0.0 0.00 0.00 0.00 99 1022.1
20260902074756 67 246 0.0 0.0 0.00 0.00 0.00 99 1022.3
20260902074251 67 246 0.0 0.0 0.00 0.00 0.00 99 1022.0
20260902073746 68 245 0.0 0.0 0.00 0.00 0.00 99 1021.8
20260902073242 68 245 0.0 0.0 0.00 0.00 0.00 99 1021.9
20260902072738 68 245 0.0 0.0 0.00 0.00 0.00 99 1021.9
20260902072234 68 245 0.0 0.0 0.00 0.00 0.00 99 1022.0
20260902071730 68 245 0.0 0.0 0.00 0.00 0.00 99 1022.1
20260902071225 68 245 0.0 0.0 0.00 0.00 0.00 99 1021.9
20260902070722 68 245 0.0 0.0 0.00 0.00 0.00 99 1022.1
20260902070220 68 245 0.0 0.0 0.00 0.00 0.00 99 1021.9
20260902065720 68 245 0.0 0.0 0.00 0.00 0.00 99 1021.9
20260902065215 68 245 0.0 0.0 0.00 0.00 0.00 99 1022.0
20260902064711 68 246 0.0 0.0 0.00 0.00 0.00 99 1021.9
20260902064206 67 246 0.0 0.0 0.00 0.00 0.00 99 1022.0
20260902063702 67 246 0.0 0.0 0.00 0.00 0.00 99 1022.1
20260902063156 67 246 0.0 0.0 0.00 0.00 0.00 99 1022.4
20260902062655 67 246 0.0 0.0 0.00 0.00 0.00 99 1022.2
20260902062151 67 246 0.0 0.0 0.00 0.00 0.00 99 1022.3
20260902061649 67 246 0.0 0.0 0.00 0.00 0.00 99 1022.0
20260902061145 68 246 0.0 0.0 0.00 0.00 0.00 99 1022.3
20260902060642 68 245 0.0 0.0 0.00 0.00 0.00 99 1022.4
20260902060138 68 246 0.0 0.0 0.00 0.00 0.00 99 1022.2
20260902055633 68 249 0.0 0.0 0.00 0.00 0.00 99 1022.1
20260902055129 68 249 0.0 0.0 0.00 0.00 0.00 99 1021.9
20260902054624 68 248 0.0 0.0 0.00 0.00 0.00 99 1022.0
20260902054120 68 248 0.0 0.0 0.00 0.00 0.00 99 1022.0
20260902053615 68 249 0.0 0.0 0.00 0.00 0.00 99 1022.1